Regional Weather Roundup
Issued by NWS

Home | Current Version | Previous Version | Text Only | Print | Product List | Glossary Off
Versions: 1 2 3 4 5 6 7 8 9 10 11 12 13 14 15 16 17 18 19 20 21 22 23 24 25 26 27 28 29 30 31 32 33 34 35 36 37 38 39 40 41 42 43 44 45 46 47 48 49 50

000
ASUS43 KDTX 190901
RWRMI
MICHIGAN HOURLY REGIONAL WEATHER ROUNDUP
NATIONAL WEATHER SERVICE DETROIT/PONTIAC MI
400 AM EST FRI JAN 19 2018

NOTE: "FAIR" INDICATES FEW OR NO CLOUDS BELOW 12,000 FEET WITH NO
SIGNIFICANT WEATHER AND/OR OBSTRUCTION TO VISIBILITY.

MIZ047>049-052>055-059>063-066>070-074>076-081>083-191000-
SOUTHEAST LOWER MICHIGAN

CITY           SKY/WX    TMP DP  RH WIND       PRES   REMARKS
ADRIAN         FAIR      22  13  68 W8        29.97F WCI  12
ALMA           FAIR      25  22  91 S7        29.88F WCI  17
ANN ARBOR      FAIR      21  14  74 S10       29.93F WCI  10
BAD AXE        FAIR      24  18  80 SW7       29.88S WCI  16
CARO           FAIR      23  18  80 S6        29.89R WCI  15
DETROIT CITY   FAIR      24  15  68 SW13      29.93F WCI  12
DETROIT        FAIR      23  15  71 SW13      29.95F WCI  11
FLINT          FAIR      23  15  71 SW7       29.92R WCI  15
GROSSE ILE     FAIR      25  15  67 SW9       29.96S WCI  15
HILLSDALE      FAIR      27  14  59 SW10      29.93F WCI  17
HOWELL         FAIR      25  17  73 SW6       29.91R WCI  18

CITY           SKY/WX    TMP DP  RH WIND       PRES   REMARKS
JACKSON        FAIR      25  15  66 SW16G26   29.92S WCI  12
LAMBERTVILLE   FAIR      25  14  63 SW10G18   29.98F WCI  15
LANSING        FAIR      26  18  71 SW14      29.92R WCI  14
LAPEER         FAIR      25  17  71 W7        29.91R WCI  18
MASON          FAIR      27  15  61 SW10G17   29.92R WCI  17
MONROE         FAIR      24  13  63 SW14G21   29.97R WCI  12
MT. CLEMENS    FAIR     N/A N/A N/A SW9         N/A
PONTIAC        FAIR      25  16  68 W9        29.90R WCI  15
PORT HOPE        N/A     25  18  74 SW9       29.86R WCI  15
PORT HURON     FAIR      19  14  79 SW5       29.94R WCI  13
TRI CITIES     FAIR      25  21  85 SW8       29.88R WCI  16
MIDLAND        FAIR      21  20  93 CALM      29.86F FOG
TROY           FAIR      23  15  71 SW7       29.94S WCI  15
SAGINAW HB     FAIR      23  19  86 SW9       29.89S WCI  13
$$
MIZ043>046-050>051-056>058-064>065-071>073-077>080-191000-
SOUTHWEST LOWER MICHIGAN

CITY           SKY/WX    TMP DP  RH WIND       PRES   REMARKS
BATTLE CREEK   FAIR      23  15  71 SW10      29.94R WCI  12
BENTON HARBOR  FAIR      26  16  65 S9        29.96R WCI  17
BIG RAPIDS     FAIR      28  22  76 SW8       29.83F WCI  20
COLDWATER      FAIR      24  16  69 SW14G20   29.96S WCI  12
FREMONT        FAIR      29  20  68 SW8       29.86F WCI  21
HOLLAND        FAIR      33  25  72 SW17      29.91S WCI  22
GRAND RAPIDS   FAIR      26  19  74 SW12      29.90R WCI  16
IONIA          FAIR      26  19  75 SW14      29.89R WCI  15
KALAMAZOO      FAIR      26  16  65 SW10      29.94R WCI  16
LUDINGTON      FAIR      31  26  80 SW9       29.82F WCI  23
MARSHALL       FAIR      24  15  68 SW9       29.94S WCI  14
MOUNT PLEASANT FAIR      31  23  72 SW10      29.84F WCI  22
MUSKEGON       FAIR      34  24  67 SW15      29.88F WCI  24
SOUTH HAVEN    FAIR      31  22  66 SW16G23   29.94S WCI  20
$$
MIZ016>042-191000-
NORTHERN LOWER MICHIGAN

CITY           SKY/WX    TMP DP  RH WIND       PRES   REMARKS
ALPENA         CLOUDY    31  25  78 SW9       29.78F WCI  23
BEAVER ISLAND  FAIR      32  27  83 SW6       29.73F WCI  26
BELLAIRE       FAIR      28  25  91 S3        29.79F
CADILLAC       FAIR      21  20  96 SW6       29.77F WCI  13
CHARLEVOIX     FAIR      30  27  86 S7        29.78F WCI  24
FRANKFORT      FAIR      33  27  76 SW7       29.79F WCI  27
GRAYLING       FAIR      20  18  91 CALM      29.78F FOG
HARBOR SPRINGS FAIR      30  27  90 SW8       29.74F WCI  22
HOUGHTON LAKE  FAIR      23  20  88 S7        29.80F WCI  15
MANISTEE       FAIR      27  24  89 S6        29.81F WCI  20
OSCODA         FAIR      26  20  79 SW9       29.83F WCI  16
PELLSTON       FAIR      32  26  78 SW8       29.74F WCI  25
ROGERS CITY    CLOUDY    32  26  78 SW7       29.77F WCI  26
TRAVERSE CITY  FAIR      26  22  84 S3        29.77F
$$
MIZ007>008-015-191000-
EASTERN UPPER MICHIGAN

CITY           SKY/WX    TMP DP  RH WIND       PRES   REMARKS
KINROSS        CLOUDY    30  26  85 SW3       29.71F
MACKINAC ISLAN CLOUDY    32  28  85 SW5       29.72F WCI  27
NEWBERRY       CLOUDY    28  26  94 SW3       29.68F
S. S. MARIE    CLOUDY    31  25  78 CALM      29.70F
$$
MIZ004>006-011>014-085-191000-
CENTRAL UPPER MICHIGAN

CITY           SKY/WX    TMP DP  RH WIND       PRES   REMARKS
MANISTIQUE     FAIR      27  26  94 SW6       29.71S WCI  21
ESCANABA       FAIR      20  18  92 W3        29.74S
MENOMINEE      FAIR      24  19  81 SW9       29.75F WCI  14
SAWYER-GWINN   FAIR      25  21  86 S8        29.67F WCI  16
$$
MIZ001>003-009>011-084-191000-
WESTERN UPPER MICHIGAN

CITY           SKY/WX    TMP DP  RH WIND       PRES   REMARKS
IRON MOUNTAIN  FAIR      19  15  84 CALM      29.69R
HOUGHTON       FAIR      24  19  81 SW5       29.61F WCI  18
COPPER HARBOR    N/A     33  25  72 W6        29.63F WCI  28
IRONWOOD       FAIR      24  21  88 S3        29.65F
$$

ABBREVIATIONS USED IN REMARKS
   TC - TEMPERATURE IN CELSIUS
  WCI - WIND CHILL INDEX
   HX - HEAT INDEX
  VSB - VISIBILITY





USA.gov is the U.S. government's official web portal to all federal, state and local government web resources and services.